Regional Weather Roundup
Issued by NWS

Home | Current Version | Previous Version | Text Only | Print | Product List | Glossary Off
Versions: 1 2 3 4 5 6 7 8 9 10 11 12 13 14 15 16 17 18 19 20 21 22 23 24 25 26 27 28 29 30 31 32 33 34 35 36 37 38 39 40 41 42 43 44 45 46 47 48 49 50

000
ASUS43 KMPX 281401
RWRMN
WEATHER ROUNDUP FOR MINNESOTA
NATIONAL WEATHER SERVICE TWIN CITIES/CHANHASSEN MN
900 AM CDT THU MAY 28 2015


NOTE: "FAIR" INDICATES FEW OR NO CLOUDS BELOW 12,000 FEET WITH NO
SIGNIFICANT WEATHER AND/OR OBSTRUCTIONS TO VISIBILITY. N/A MEANS
CURRENT SKY AND/OR WEATHER CONDITIONS ARE NOT AVAILABLE.

MNZ060>063-068>070-281500-
   Twin Cities Metro

CITY           SKY/WX    TMP DP  RH WIND       PRES   REMARKS
TWIN CITIES    PTSUNNY   73  54  51 S6        30.07R
ST PAUL        MOSUNNY   69  59  70 SE6       30.07S
CRYSTAL        MOSUNNY   73  56  54 S7        30.05R
BLAINE         PTSUNNY   73  55  53 S9        30.06R
LAKEVILLE      MOSUNNY   70  57  64 S3        30.08S
EDEN PRAIRIE   MOSUNNY   71  58  63 S7        30.06R
SOUTH ST PAUL  MOSUNNY   69  58  68 SE6       30.07S
LAKE ELMO      FAIR      70  59  68 S8        30.09R
$$
MNZ001>005-007-008-013>017-022>024-027-028-281500-
   Northwest Minnesota

CITY           SKY/WX    TMP DP  RH WIND       PRES   REMARKS
BEMIDJI        LGT RAIN  56  55  93 NE5       29.99F
HALLOCK        DRIZZLE   57  55  94 NE5       29.91F
ROSEAU         RAIN      55  50  82 E6        29.97F
WARROAD        RAIN      54  50  87 CALM      29.99F
THIEF RVR FALL CLOUDY    57  55  94 E12       29.95F
CROOKSTON      LGT RAIN  59  57  94 E8        29.93F
FOSSTON        RAIN      57  54  88 E3        29.97F
DETROIT LAKES  CLOUDY    64  55  72 SE3       29.97F
MOORHEAD       DRIZZLE   63  57  82 E8        29.92S
PARK RAPIDS    CLOUDY    68  53  58 SE9       29.97F
MAHNOMEN       LGT RAIN  58  57  94 E8        29.95F
$$
MNZ006-009>011-018-025>026-281500-
   North Central Minnesota

CITY           SKY/WX    TMP DP  RH WIND       PRES   REMARKS
BAUDETTE       RAIN      54  51  90 E6        30.00S
FLAG ISLAND    LGT RAIN  55  52  88 SE6       29.99F
INTL FALLS     CLOUDY    59  48  67 SE9       30.00F
WASKISH        RAIN      57  54  88 CALM      30.01R
BIG FORK       LGT RAIN  55  48  76 SE8       30.01F
LONGVILLE      CLOUDY    57  52  82 SE5       30.00F
GRAND RAPIDS   CLOUDY    52  46  82 SE6       30.03F
CRANE LAKE     CLOUDY    57  46  67 CALM      30.06S
ORR            PTSUNNY   57  45  62 SE6       30.01F
COOK           PTSUNNY   59  46  63 SE6       30.04F
WALKER         FAIR      61  52  71 SE3       29.99S
$$
MNZ012-019>021-037-281500-
   Northeast Minnesota

CITY           SKY/WX    TMP DP  RH WIND       PRES   REMARKS
DULUTH         MOSUNNY   50  42  74 E16       30.09F
HIBBING        PTSUNNY   56  46  69 SE9       30.05F
EVELETH        MOSUNNY   57  46  67 SE6       30.07F
DULUTH HARBOR  MOSUNNY   45  41  87 NE22      30.14S
TWO HARBORS    MOSUNNY   54  46  76 E10       30.09F
SILVER BAY     CLOUDY    48  43  81 NE12G17   30.13S
GRAND MARAIS     N/A     45  39  79 NE12      30.17F
G MARAIS ARPRT SUNNY     52  39  62 E9        30.15F
$$
MNZ029>031-032-039>041-046>048-054>057-064-281500-
   West Central Minnesota

CITY           SKY/WX    TMP DP  RH WIND       PRES   REMARKS
FERGUS FALLS   PTSUNNY   72  55  56 S9        29.95F
WHEATON        PTSUNNY   70  55  60 S8        29.96S
MORRIS         MOSUNNY   72  55  56 S13       29.96F
ALEXANDRIA     MOSUNNY   68  53  58 S8        30.01S
ELBOW LAKE     PTSUNNY   70  56  61 S13       29.97S
WADENA         CLOUDY    70  54  56 S12       29.97F
GLENWOOD       MOSUNNY   70  55  60 S10       30.01F
APPLETON       PTSUNNY   72  54  53 S9        29.97F
BENSON         PTSUNNY   70  54  56 SW6       29.99F
ORTONVILLE     PTSUNNY   70  55  60 S7        29.96F
MADISON        CLOUDY    70  54  56 S13       29.98F
WILLMAR        FAIR      73  55  53 S7        30.03F
$$
MNZ033>034-036-042>043-049>051-058-059-281500-
   Central Minnesota

CITY           SKY/WX    TMP DP  RH WIND       PRES   REMARKS
ST CLOUD       PTSUNNY   69  57  65 S7        30.03S
SAUK CENTRE    FAIR      68  54  60 S10       30.02S
PAYNESVILLE    PTSUNNY   66  54  64 SE8       30.03F
AITKIN         CLOUDY    63  52  67 SE7       30.02S
PINE RIVER     CLOUDY    61  54  77 SE8       30.03F
BRAINERD       CLOUDY    63  54  72 SE7       30.02F
STAPLES        PTSUNNY   68  54  60 S9        29.99F
LONG PRAIRIE     N/A     70  54  56 S12       30.02S HAZE
LITTLE FALLS   PTSUNNY   68  54  60 S5        30.02S
LITCHFIELD     PTSUNNY   72  57  60 S3        30.04F
BUFFALO        PTSUNNY   69  55  60 S3        30.06S
MAPLE LAKE     PTSUNNY   71  58  65 S3        30.06S
$$
MNZ037-044-045-052-053-281500-
   East Central Minnesota

CITY           SKY/WX    TMP DP  RH WIND       PRES   REMARKS
PRINCETON      MOSUNNY   72  57  60 S5        30.05S
MORA           MOSUNNY   61  54  77 CALM      30.07S
CAMBRIDGE      MOSUNNY   72  57  60 S5        30.04R
RUSH CITY      SUNNY     65  57  76 CALM      30.06S
MOOSE LAKE     MOSUNNY   52  43  71 E3        30.06S
HINCKLEY       FAIR      61  54  77 E5        30.06S
CLOQUET        MOSUNNY   48  39  71 E12       30.08F
MCGREGOR       CLOUDY    55  48  76 SE6       30.04F
$$
MNZ071>073-080-081-089-090-097-098-281500-
   Southwest Minnesota

CITY           SKY/WX    TMP DP  RH WIND       PRES   REMARKS
MONTEVIDEO     CLOUDY    72  55  56 SW7       30.01S
GRANITE FALLS  PTSUNNY   73  53  48 S12       30.02F
CANBY          PTSUNNY   69  55  59 S7        30.01S
MARSHALL       PTSUNNY   73  50  43 SW18      30.01F
REDWOOD FALLS  MOSUNNY   73  55  53 S12       30.03F
OLIVIA         MOSUNNY   68  52  56 S9        30.02F
PIPESTONE      PTSUNNY   70  54  56 S17       30.04R
WINDOM         MOSUNNY   73  54  49 S6        30.07S
WORTHINGTON    MOSUNNY   72  52  49 S17       30.07R
JACKSON        MOSUNNY   72  54  53 S12       30.08F
TRACY          MOSUNNY   71  55  56 S7        30.04S
SLAYTON        MOSUNNY   72  49  44 S17       30.06S
$$
MNZ065>067-074>077-082>085-091>093-281500-
   South Central Minnesota

CITY           SKY/WX    TMP DP  RH WIND       PRES   REMARKS
MANKATO        SUNNY     70  55  60 S9        30.08S
NEW ULM        SUNNY     70  55  60 S7        30.06S
ST JAMES       SUNNY     72  57  60 S12       30.07F
FAIRMONT       MOSUNNY   68  54  60 S12       30.08S
GLENCOE        MOSUNNY   70  60  69 S8        30.06S
FARIBAULT      SUNNY     72  57  60 S7        30.10S
OWATONNA       MOSUNNY   72  55  56 S12       30.10F
WASECA         SUNNY     72  55  56 S12       30.11S
ALBERT LEA     MOSUNNY   70  55  60 S10       30.12S
$$
MNZ078>079-086>088-094>096-281500-
   Southeast Minnesota

CITY           SKY/WX    TMP DP  RH WIND       PRES   REMARKS
ROCHESTER      MOSUNNY   71  60  68 SW12      30.14R
RED WING       SUNNY     72  59  64 SE3       30.09R
STANTON        SUNNY     73  57  57 S7        30.08S
DODGE CENTER   MOSUNNY   72  55  56 SW13      30.12S
WINONA         SUNNY     72  61  68 SW3       30.13R
AUSTIN         MOSUNNY   68  59  73 S6        30.13S
PRESTON        MOSUNNY   69  58  67 SW9       30.15S
$$
ABBREVIATIONS USED IN REMARKS
   TC - TEMPERATURES IN CELSIUS
  WCI - WIND CHILL INDEX
   HX - HEAT INDEX
  VSB - VISIBILITY
$$



USA.gov is the U.S. government's official web portal to all federal, state and local government web resources and services.